Regional Weather Roundup
Issued by NWS Sioux Falls, SD

Home | Current Version | Previous Version | Text Only | Print | Product List | Glossary On
Versions: 1 2 3 4 5 6 7 8 9 10 11 12 13 14 15 16 17 18 19 20 21 22 23 24 25 26 27 28 29 30 31 32 33 34 35 36 37 38 39 40 41 42 43 44 45 46 47 48 49 50
000
ASUS43 KFSD 020410
RWRFSD

WEATHER ROUNDUP FOR SE SOUTH DAKOTA/SW MINNESOTA/NW IOWA
NATIONAL WEATHER SERVICE SIOUX FALLS SD
1100 PM CDT SUN MAY 01 2016

NOTE: "FAIR" INDICATES FEW OR NO CLOUDS BELOW 12,000 FEET WITH NO
SIGNIFICANT WEATHER AND OR OBSTRUCTIONS TO VISIBILITY.


SDZ038>040-050-052>070-020500-
SOUTHEAST SOUTH DAKOTA

CITY           SKY/WX    TMP DP  RH WIND       PRES   REMARKS
BROOKINGS      CLEAR     45  33  63 CALM      30.15
CHAMBERLAIN    CLEAR     47  40  76 CALM      30.20S
HURON          CLEAR     46  38  73 W5        30.17S
MADISON        FAIR      45  36  70 CALM      30.17R
MITCHELL       CLEAR     48  40  73 CALM      30.18S
SIOUX FALLS    CLEAR     42  36  79 CALM      30.17R
WINNER         FAIR      43  35  73 SW5       30.22R
YANKTON        CLEAR     45  37  76 W6        30.18R
$$

MNZ071-072-080-081-089-090-097-098-020500-
SOUTHWEST MINNESOTA

CITY           SKY/WX    TMP DP  RH WIND       PRES   REMARKS
FAIRMONT       CLEAR     48  36  61 NW5       30.12R
JACKSON        CLEAR     43  37  81 CALM      30.14S
LUVERNE        CLEAR     43  36  75 NW3       30.16S
MARSHALL       CLEAR     45  34  65 W5        30.15R
MONTEVIDEO     CLEAR     48  30  49 CALM      30.15F
REDWOOD FALLS  CLEAR     49  31  49 CALM      30.13S
TRACY          CLEAR     45  35  68 CALM      30.14S
WINDOM         CLEAR     43  37  81 CALM      30.14R
WORTHINGTON    CLEAR     42  39  89 W5        30.16R
$$

IAZ001>003-012>014-020>022-031-032-NEZ013-014-SDZ071-020500-
NORTHWEST IOWA

CITY           SKY/WX    TMP DP  RH WIND       PRES   REMARKS
CHEROKEE       CLOUDY    46  41  85 CALM      30.15S
DENISON        CLOUDY    48 N/A N/A CALM      30.13S
ESTHERVILLE    CLEAR     44  39  82 NW9       30.13R
LE MARS        CLEAR     45  41  87 CALM      30.18S
ORANGE CITY    PTCLDY    45  41  87 CALM      30.17R
SHELDON        MOCLDY    41  39  93 CALM      30.15R
SIOUX CITY     MOCLDY    48  41  76 NW3       30.17S
SPENCER        CLEAR     40  35  83 NW7       30.14R
STORM LAKE     CLOUDY    48  43  81 NW8       30.15S
$$

ABBREVIATIONS USED IN REMARKS
   TC - TEMPERATURE IN CELSIUS
  WCI - WIND CHILL INDEX
   HX - HEAT INDEX
  VSB - VISIBILITY





USA.gov is the U.S. government's official web portal to all federal, state and local government web resources and services.